Harrison, AR

7:32 AM CDT on April 25, 2017 (GMT -0500)
Boone County

Weather History for KHRO - December, 2013

Change the Weather History Date:

Sunday, December 22, 2013

  Actual Average Record
Temperature  
Mean Temperature 34 °F 37 °F  
Max Temperature 40 °F 46 °F 72 °F (1933)
Min Temperature 27 °F 27 °F -9 °F (1989)
Degree Days  
Heating Degree Days 31 28  
Month to date heating degree days 607 574  
Since 1 July heating degree days 1420 1338  
Cooling Degree Days 0 0  
Month to date cooling degree days 0 0  
Year to date cooling degree days 1414 1416  
Moisture  
Dew Point 28 °F    
Average Humidity 88    
Maximum Humidity 100    
Minimum Humidity 75    
Precipitation  
Precipitation T in 0.10 in 1.45 in (1941)
Month to date precipitation 3.73 2.35  
Year to date precipitation 45.24 43.29  
Snow  
Snow T in 0.10 in 9.00 in (1966)
Month to date snowfall 9.0 0.4  
Since 1 July snowfall 9.0 0.9  
Snow Depth T in    
Sea Level Pressure  
Sea Level Pressure 29.99 in    
Wind  
Wind Speed 9 mph (WNW)    
Max Wind Speed 16 mph    
Max Gust Speed 23 mph    
Visibility 8 miles    
Events Fog    
T = Trace of Precipitation, MM = Missing Value Source: NWS Daily Summary

Daily Weather History Graph

Daily Weather History Graph

Search for Another Location

Airport or City:

Trip Planner

Search our weather history database for the weather conditions in past years. The results will help you decide how hot, cold, wet, or windy it might be!

Date:

Astronomy

Dec. 22, 2013 Rise Set
Actual Time 7:20 AM CST 5:02 PM CST
Civil Twilight 6:51 AM CST 5:30 PM CST
Nautical Twilight 6:19 AM CST 6:03 PM CST
Astronomical Twilight 5:48 AM CST 6:34 PM CST
Moon 10:06 PM CST (12/22) 10:24 AM CST (12/22)
Length of Visible Light 10h 38m
Length of Day
9h 41m
Waning Gibbous, 76% of the Moon is Illuminated
Dec 22
Waning Gibbous
Dec 25
Last Quarter
Jan 1
New
Jan 7
First Quarter
Jan 15
Full

Hourly Weather History & Observations

Time (CST) Temp. Windchill Dew Point Humidity Pressure Visibility Wind Dir Wind Speed Gust Speed Precip Events Conditions
12:53 AM 37.9 °F 35.5 °F 37.9 °F 100% 29.69 in 0.2 mi WNW 3.5 mph - N/A Fog Fog
1:16 AM 37.4 °F 33.8 °F 37.4 °F 100% 29.68 in 0.2 mi NW 4.6 mph - N/A Fog Fog
1:25 AM 37.4 °F 34.9 °F 37.4 °F 100% 29.68 in 0.8 mi NW 3.5 mph - N/A   Overcast
1:28 AM 37.4 °F 34.9 °F 37.4 °F 100% 29.68 in 1.2 mi WNW 3.5 mph - N/A   Overcast
1:31 AM 37.4 °F 33.8 °F 37.4 °F 100% 29.68 in 3.0 mi West 4.6 mph - N/A   Overcast
1:53 AM 39.9 °F 33.9 °F 39.0 °F 97% 29.72 in 10.0 mi West 9.2 mph - N/A   Overcast
2:36 AM 37.4 °F 29.8 °F 37.4 °F 100% 29.73 in 7.0 mi West 11.5 mph 17.3 mph N/A   Overcast
2:44 AM 37.4 °F 28.9 °F 37.4 °F 100% 29.73 in 7.0 mi West 13.8 mph - N/A   Overcast
2:53 AM 37.0 °F 29.8 °F 36.0 °F 96% 29.75 in 6.0 mi West 10.4 mph - N/A   Overcast
3:02 AM 37.4 °F 29.3 °F 35.6 °F 93% 29.74 in 5.0 mi West 12.7 mph 18.4 mph N/A   Overcast
3:53 AM 35.1 °F 27.9 °F 34.0 °F 96% 29.80 in 5.0 mi West 9.2 mph - N/A   Overcast
4:53 AM 32.0 °F 23.0 °F 30.9 °F 96% 29.83 in 7.0 mi West 11.5 mph 20.7 mph N/A   Overcast
5:07 AM 32.0 °F 23.0 °F 30.2 °F 93% 29.81 in 9.0 mi West 11.5 mph 18.4 mph N/A   Overcast
5:53 AM 32.0 °F 25.6 °F 30.9 °F 96% 29.87 in 10.0 mi West 6.9 mph 18.4 mph N/A   Overcast
6:23 AM 33.8 °F 26.4 °F 30.2 °F 87% 29.86 in 10.0 mi West 9.2 mph 18.4 mph N/A   Overcast
6:53 AM 32.0 °F 22.1 °F 28.0 °F 85% 29.90 in 10.0 mi West 13.8 mph 20.7 mph N/A   Overcast
7:41 AM 32.0 °F 24.2 °F 28.4 °F 87% 29.90 in 10.0 mi WNW 9.2 mph 19.6 mph N/A   Overcast
7:53 AM 32.0 °F 23.6 °F 27.0 °F 82% 29.93 in 10.0 mi West 10.4 mph - N/A   Overcast
8:53 AM 32.0 °F 22.5 °F 27.0 °F 82% 29.94 in 10.0 mi WNW 12.7 mph 23.0 mph 0.00 in   Overcast
9:53 AM 32.0 °F 24.8 °F 26.1 °F 79% 30.00 in 10.0 mi West 8.1 mph - 0.00 in   Overcast
10:53 AM 30.9 °F 21.2 °F 26.1 °F 82% 30.02 in 10.0 mi NW 12.7 mph 18.4 mph N/A   Overcast
11:00 AM 30.2 °F 20.8 °F 26.6 °F 86% 30.00 in 10.0 mi NW 11.5 mph 17.3 mph N/A   Overcast
11:40 AM 30.2 °F 22.6 °F 24.8 °F 80% 30.01 in 10.0 mi NW 8.1 mph - N/A   Overcast
11:53 AM 30.9 °F 22.8 °F 25.0 °F 79% 30.03 in 10.0 mi WNW 9.2 mph - N/A   Overcast
12:33 PM 30.2 °F 20.2 °F 24.8 °F 80% 30.02 in 10.0 mi NW 12.7 mph 19.6 mph N/A   Overcast
12:53 PM 30.0 °F 21.1 °F 25.0 °F 82% 30.06 in 10.0 mi WNW 10.4 mph - N/A   Overcast
1:53 PM 28.0 °F 20.8 °F 24.1 °F 85% 30.07 in 5.0 mi Variable 6.9 mph 17.3 mph N/A   Overcast
2:17 PM 28.4 °F 18.0 °F 23.0 °F 80% 30.05 in 8.0 mi NW 12.7 mph 18.4 mph N/A   Overcast
2:53 PM 28.9 °F 22.8 °F 23.0 °F 78% 30.09 in 10.0 mi NW 5.8 mph - N/A   Overcast
3:25 PM 28.4 °F 21.2 °F 23.0 °F 80% 30.07 in 9.0 mi NW 6.9 mph - N/A   Overcast
3:50 PM 28.4 °F 19.1 °F 23.0 °F 80% 30.10 in 8.0 mi NW 10.4 mph - N/A   Overcast
3:53 PM 28.0 °F 18.1 °F 23.0 °F 81% 30.13 in 8.0 mi NW 11.5 mph 20.7 mph N/A   Overcast
4:50 PM 28.4 °F 19.7 °F 23.0 °F 80% 30.13 in 8.0 mi NW 9.2 mph 17.3 mph N/A   Overcast
4:53 PM 28.0 °F 20.0 °F 23.0 °F 81% 30.16 in 8.0 mi NW 8.1 mph 17.3 mph N/A   Overcast
5:03 PM 28.4 °F 20.4 °F 23.0 °F 80% 30.14 in 7.0 mi NW 8.1 mph - N/A   Overcast
5:53 PM 28.0 °F 21.7 °F 23.0 °F 81% 30.20 in 8.0 mi NW 5.8 mph - N/A   Overcast
6:53 PM 28.0 °F 20.0 °F 23.0 °F 81% 30.24 in 7.0 mi NW 8.1 mph - N/A   Overcast
7:53 PM 28.0 °F 20.8 °F 23.0 °F 81% 30.25 in 8.0 mi NW 6.9 mph - N/A   Overcast
8:53 PM 28.0 °F 19.3 °F 23.0 °F 81% 30.28 in 8.0 mi NW 9.2 mph - N/A   Overcast
9:24 PM 26.6 °F 18.2 °F 23.0 °F 86% 30.25 in 8.0 mi NW 8.1 mph - N/A   Overcast
9:53 PM 27.0 °F 18.0 °F 21.9 °F 81% 30.30 in 10.0 mi WNW 9.2 mph 18.4 mph N/A   Overcast
10:11 PM 26.6 °F 18.2 °F 21.2 °F 80% 30.27 in 9.0 mi NW 8.1 mph 17.3 mph N/A   Overcast
10:53 PM 27.0 °F 17.3 °F 19.9 °F 75% 30.33 in 10.0 mi NW 10.4 mph 18.4 mph N/A   Overcast
11:43 PM 26.6 °F 21.2 °F 21.2 °F 80% 30.30 in 10.0 mi NNW 4.6 mph - N/A   Overcast
11:53 PM 27.0 °F 18.0 °F 21.0 °F 78% 30.34 in 10.0 mi NNW 9.2 mph - N/A   Overcast